Terminal Aerodrome Forecast
Issued by NWS Memphis, TN

Home | Current Version | Previous Version | Text Only | Print | Product List | Glossary On
Versions: 1 2 3 4 5 6 7 8 9 10 11 12 13 14 15 16 17 18 19 20 21 22 23 24 25 26 27
000
FTUS44 KMEG 182051 AAA
TAFMEM
TAF AMD
KMEM 182051Z 1821/1918 03004KT P6SM OVC025
     FM190600 05005KT 5SM BR OVC010
     FM191500 06006KT P6SM OVC025=

USA.gov is the U.S. government's official web portal to all federal, state and local government web resources and services.